This demonstration page uses our WeatherBlox Daily Observations layout. Learn more.

38.89511, -77.03637

Hourly Observations for September 28, 2016

Temp ( °F °C ) Dew Point ( °F °C ) Humidity (%) Winds ( mph kmh ) Pressure ( in mb ) Visibility ( mi km ) Precip ( " mm )
12:52 am 00:52 Mostly Clear 66 18.9 64 17.8 93 93 Calm 29.96 1014 10 16.0934 0 0
1:52 am 01:52 Mostly Clear 65 18.3 64 17.8 97 97 NE 7 11 29.96 1015 10 16.0934 0 0
2:41 am 02:41 Cloudy 65 18.3 64 17.8 97 97 NE 3 6 29.97 1015 10 16.0934 0 0
2:52 am 02:52 Cloudy 65 18.3 63 17.2 93 93 NNE 6 9 29.96 1015 10 16.0934 0 0
3:01 am 03:01 Cloudy 65 18.3 63 17.2 93 93 NE 6 9 29.97 1015 10 16.0934 0 0
3:52 am 03:52 Cloudy 65 18.3 64 17.8 97 97 NE 6 9 29.96 1015 7 11.26538 0 0
4:52 am 04:52 Cloudy 65 18.3 64 17.8 97 97 NNE 6 9 29.96 1015 10 16.0934 0 0
5:52 am 05:52 Cloudy 66 18.9 65 18.3 96 96 NNE 9 15 29.96 1014 8 12.87472 0 0
6:42 am 06:42 Cloudy with Light Rain 66 19 64 18 94 94 NNE 13 20 29.94 1014 9 14.48406 0 0
6:48 am 06:48 Mostly Cloudy with Light Rain 66 19 64 18 94 94 NNE 8 13 29.97 1015 9 14.48406 0 0
6:52 am 06:52 Mostly Cloudy with Light Rain 66 18.9 65 18.3 96 96 NE 9 15 29.95 1014 9 14.48406 0 0.0254
7:52 am 07:52 Cloudy with Rain 66 18.9 65 18.3 96 96 E 9 15 29.98 1015 4 6.43736 0.02 0.508
7:58 am 07:58 Cloudy with Rain 66 19 64 18 94 94 ENE 7 11 30 1016 4 6.43736 0 0
8:30 am 08:30 Cloudy with Light Rain 66 19 64 18 94 94 ENE 7 11 30 1016 8 12.87472 0 0
8:52 am 08:52 Cloudy 66 18.9 65 18.3 96 96 NE 10 17 29.98 1015 10 16.0934 0.02 0.508
9:52 am 09:52 Cloudy 66 18.9 63 17.2 90 90 ENE 12 19 30 1016 10 16.0934 0.01 0.254
10:33 am 10:33 Cloudy with Light Rain 66 18.9 63 17.2 90 90 E 7 11 30 1016 10 16.0934 0 0.0254
10:52 am 10:52 Cloudy with Light Rain 66 18.9 64 17.8 93 93 E 10 17 30.01 1016 10 16.0934 0 0.0254
10:59 am 10:59 Cloudy with Light Rain 66 18.9 64 17.8 93 93 ENE 8 13 30 1016 10 16.0934 0 0.0254
11:52 am 11:52 Cloudy 68 20 65 18.3 90 90 E 7 11 30.01 1016 10 16.0934 0 0.0254
12:00 pm 12:00 Cloudy 68 20 64 18 88 88 ENE 12 19 30 1016 10 16.0934 0 0
12:08 pm 12:08 Cloudy 68 20 64 18 88 88 E 12 19 30 1016 10 16.0934 0 0
12:34 pm 12:34 Cloudy 68 20 64 18 88 88 E 8 13 30 1016 10 16.0934 0 0
12:52 pm 12:52 Cloudy 69 20.6 65 18.3 87 87 NE 7 11 30.01 1016 10 16.0934 0.01 0.254
1:09 pm 13:09 Cloudy with Light Rain 68 20 65 18.3 90 90 NE 5 7 30.03 1017 5 8.0467 0 0.0254
1:52 pm 13:52 Cloudy with Light Rain 68 20 67 19.4 96 96 ENE 10 17 30.01 1016 8 12.87472 0.03 0.762
2:44 pm 14:44 Cloudy 70 21 66 19 88 88 NE 9 15 30 1016 10 16.0934 0 0
2:48 pm 14:48 Cloudy 70 21 66 19 88 88 NE 8 13 30 1016 10 16.0934 0 0
2:52 pm 14:52 Cloudy 69 20.6 67 19.4 93 93 NE 10 17 30 1016 9 14.48406 0.01 0.254
3:30 pm 15:30 Cloudy 70 21 66 19 88 88 ENE 12 19 30 1016 10 16.0934 0 0
3:52 pm 15:52 Cloudy 69 20.6 67 19.4 93 93 NNE 8 13 29.99 1016 10 16.0934 0 0.0254
4:05 pm 16:05 Cloudy with Nearby Thunderstorms 69 20.6 67 19.4 93 93 NE 8 13 30 1016 10 16.0934 0 0
4:27 pm 16:27 Cloudy 69 20.6 68 20 96 96 NE 9 15 30 1016 10 16.0934 0 0.0254
4:31 pm 16:31 Cloudy with Nearby Thunderstorms 69 20.6 68 20 96 96 NE 10 17 30 1016 10 16.0934 0 0.0254
4:52 pm 16:52 Cloudy with Nearby Thunderstorms 70 21.1 68 20 93 93 ENE 8 13 30 1016 10 16.0934 0 0.0254
5:29 pm 17:29 Cloudy with Light Thunderstorms 70 21.1 68 20 93 93 NE 10 17 30 1016 6 9.65604 0 0.0254
5:32 pm 17:32 Cloudy with Light Thunderstorms 70 21 68 20 94 94 NE 12 19 30 1016 5 8.0467 0 0
5:37 pm 17:37 Cloudy with Light Thunderstorms 70 21.1 68 20 93 93 ENE 8 13 30 1016 7 11.26538 0 0.0254
5:52 pm 17:52 Cloudy with Light Thunderstorms 70 21.1 69 20.6 97 97 ENE 13 20 30.01 1016 4 6.43736 0.01 0.254
5:55 pm 17:55 Cloudy with Light Thunderstorms 70 21.1 68 20 93 93 ENE 10 17 30 1016 6 9.65604 0 0.0254
6:23 pm 18:23 Cloudy with Nearby Thunderstorms 70 21.1 68 20 93 93 E 10 17 30 1016 10 16.0934 0.01 0.254
6:41 pm 18:41 Cloudy 70 21.1 68 20 93 93 ENE 10 17 30 1016 10 16.0934 0.01 0.254
6:52 pm 18:52 Cloudy 70 21.1 68 20 93 93 ENE 12 19 30.01 1016 10 16.0934 0.01 0.254
7:12 pm 19:12 Cloudy 70 21 70 21 100 100 ENE 8 13 30.03 1017 10 16.0934 0 0
7:35 pm 19:35 Cloudy with Nearby Thunderstorms 70 21.1 69 20.6 97 97 ENE 12 19 30.03 1017 10 16.0934 0 0
7:52 pm 19:52 Cloudy 71 21.7 69 20.6 94 94 E 14 22 30.01 1016 10 16.0934 0 0
7:57 pm 19:57 Cloudy with Nearby Thunderstorms 70 21.1 68 20 93 93 E 13 20 30.03 1017 10 16.0934 0 0
7:59 pm 19:59 Cloudy with Nearby Thunderstorms 70 21.1 68 20 93 93 E 13 20 30.03 1017 10 16.0934 0 0
8:08 pm 20:08 Cloudy with Nearby Thunderstorms 70 21 68 20 94 94 E 13 20 30.03 1017 10 16.0934 0 0
8:21 pm 20:21 Mostly Cloudy 71 21.7 68 20 90 90 E 12 19 30.03 1017 10 16.0934 0 0
8:27 pm 20:27 Mostly Cloudy 71 21.7 68 20 90 90 E 13 20 30.03 1017 10 16.0934 0 0
8:40 pm 20:40 Cloudy 72 22 70 21 94 94 E 15 24 30.03 1017 10 16.0934 0 0
8:47 pm 20:47 Cloudy with Nearby Thunderstorms 72 22 70 21 94 94 E 14 22 30.03 1017 10 16.0934 0 0.0254
8:52 pm 20:52 Cloudy with Nearby Thunderstorms 71 21.7 68 20 90 90 E 14 22 30.04 1017 10 16.0934 0 0.0254
9:00 pm 21:00 Cloudy with Nearby Thunderstorms 72 22 70 21 94 94 E 15 24 30.03 1017 10 16.0934 0 0
9:06 pm 21:06 Cloudy with Nearby Thunderstorms 72 22 70 21 94 94 E 12 19 30.03 1017 10 16.0934 0 0
9:27 pm 21:27 Cloudy with Light Thunderstorms 71 21.7 68 20 90 90 E 13 20 30.06 1018 10 16.0934 0 0.0254
9:38 pm 21:38 Cloudy with Thunderstorms 70 21 70 21 100 100 E 12 19 30.06 1018 5 8.0467 0 0
9:44 pm 21:44 Cloudy with Light Thunderstorms 70 21 70 21 100 100 E 12 19 30.03 1017 6 9.65604 0 0
9:46 pm 21:46 Cloudy with Light Thunderstorms 70 21 70 21 100 100 E 13 20 30.06 1018 7 11.26538 0 0
9:52 pm 21:52 Cloudy with Light Thunderstorms 70 21.1 69 20.6 97 97 ENE 13 20 30.04 1017 7 11.26538 0.04 1.016
10:19 pm 22:19 Cloudy with Light Rain 70 21.1 69 20.6 97 97 ENE 16 26 30.03 1017 10 16.0934 0.13 3.302
10:38 pm 22:38 Cloudy with Nearby Thunderstorms 70 21 70 21 100 100 E 14 22 30.03 1017 10 16.0934 0 0
10:52 pm 22:52 Cloudy with Nearby Thunderstorms 70 21.1 68 20 93 93 ENE 10 17 30.04 1017 10 16.0934 0.13 3.302
11:13 pm 23:13 Cloudy with Thunderstorms 70 21.1 69 20.6 97 97 E 14 22 30.03 1017 10 16.0934 0 0.0254
11:34 pm 23:34 Cloudy with Light Rain 70 21 68 20 94 94 E 14 22 30.03 1017 10 16.0934 0 0
11:52 pm 23:52 Cloudy with Light Rain 70 21.1 69 20.6 97 97 E 15 24 30.03 1017 10 16.0934 0.01 0.254

Powered by AerisWeather